Location: ????????
(55.6333°N, 37.7000°E)
Time: 02:23:41
(UTC+00:00)

Cosmos 1300 - Pass Details

Date: 19 May 2025
Orbit: 394 x 398 km, 82.5° (Epoch: 13 June)

Event Time Altitude Azimuth Distance (km) Brightness Sun altitude
Rises 22:13:00 0° 337° (NNW) 2,322 7.0 -13.7°
Reaches altitude 10° 22:15:21 10° 320° (NW) 1,456 5.5 -13.7°
Maximum altitude 22:17:44 20° 271° (W) 992 4.0 -13.6°
Enters shadow 22:18:52 17° 242° (WSW) 1,109 4.0 -13.6°
